FW7027 Weather Reports


time (UTC)temp
C
wind
direction
speed
KPH
gust
KPH
rain 1hr
cm
rain 24hr
cm
rain mn
cm
humidity
%
barometer
mb
20260502183302 12 342 1.6 3.2 0.00 0.00 0.00 47
20260502182758 12 334 3.2 4.8 0.00 0.00 0.00 48
20260502182253 12 57 3.2 3.2 0.00 0.00 0.00 45
20260502181749 12 72 3.2 3.2 0.00 0.00 0.00 45
20260502181243 11 310 3.2 3.2 0.00 0.00 0.00 47
20260502180740 11 286 4.8 11.3 0.00 0.00 0.00 47
20260502180237 11 31 0.0 4.8 0.00 0.00 0.00 47
20260502170150 13 231 6.4 8.0 0.00 0.00 0.00 45
20260502164137 12 198 4.8 8.0 0.00 0.00 0.00 48
20260502163632 12 339 1.6 4.8 0.00 0.00 0.00 50
20260502163129 11 4 0.0 4.8 0.00 0.00 0.00 50
20260502162626 11 351 1.6 1.6 0.00 0.00 0.00 52
20260502162123 11 280 1.6 3.2 0.00 0.00 0.00 54
20260502161620 11 311 1.6 3.2 0.00 0.00 0.00 53
20260502161118 11 355 1.6 3.2 0.00 0.00 0.00 51
20260502160615 11 69 0.0 1.6 0.00 0.00 0.00 53
20260502160114 11 259 4.8 9.7 0.00 0.00 0.00 51
20260502152028 11 313 4.8 8.0 0.00 0.00 0.00 55
20260502151525 11 348 4.8 4.8 0.00 0.00 0.00 55
20260502151022 12 23 1.6 4.8 0.00 0.00 0.00 56
20260502150520 12 356 1.6 3.2 0.00 0.00 0.00 56
20260502130405 7 29 1.6 1.6 0.00 0.00 0.00 87
20260502123347 6 35 0.0 0.0 0.00 0.00 0.00 88
20260502122845 6 36 0.0 0.0 0.00 0.00 0.00 91
20260502122340 5 26 0.0 0.0 0.00 0.00 0.00 94
20260502121839 5 24 0.0 0.0 0.00 0.00 0.00 98
20260502121336 3 21 0.0 0.0 0.00 0.00 0.00 99
20260502120833 3 1 0.0 0.0 0.00 0.00 0.00 99
20260502120329 2 1 0.0 0.0 0.00 0.00 0.00 99
20260502115827 2 1 0.0 0.0 0.00 0.00 0.00 99
20260502115324 2 1 0.0 0.0 0.00 0.00 0.00 99
20260502114820 2 0 0.0 0.0 0.00 0.00 0.00 99
20260502114317 1 358 0.0 0.0 0.00 0.00 0.00 99
20260502113814 1 357 0.0 0.0 0.00 0.00 0.00 99
20260502113312 1 357 0.0 0.0 0.00 0.00 0.00 99
20260502112810 1 357 0.0 0.0 0.00 0.00 0.00 99
20260502112307 1 358 0.0 0.0 0.00 0.00 0.00 99
20260502111804 1 358 0.0 0.0 0.00 0.00 0.00 99
20260502111301 1 358 0.0 0.0 0.00 0.00 0.00 99
20260502110759 1 357 0.0 0.0 0.00 0.00 0.00 99
20260502110256 1 357 0.0 0.0 0.00 0.00 0.00 99
20260502105754 1 357 0.0 0.0 0.00 0.00 0.00 99
20260502105250 1 357 0.0 0.0 0.00 0.00 0.00 99
20260502104748 1 357 0.0 0.0 0.00 0.00 0.00 99
20260502104246 1 357 0.0 0.0 0.00 0.00 0.00 99
20260502103743 1 358 0.0 0.0 0.00 0.00 0.00 99
20260502103240 1 4 0.0 0.0 0.00 0.00 0.00 99
20260502102738 1 3 0.0 0.0 0.00 0.00 0.00 99
20260502102233 1 359 0.0 0.0 0.00 0.00 0.00 99
20260502101732 1 359 0.0 0.0 0.00 0.00 0.00 99
20260502101230 1 359 0.0 0.0 0.00 0.00 0.00 99
20260502100727 1 359 0.0 0.0 0.00 0.00 0.00 99
20260502100226 1 359 0.0 0.0 0.00 0.00 0.00 99
20260502091154 1 1 0.0 0.0 0.00 0.00 0.00 99
20260502090651 1 356 0.0 0.0 0.00 0.00 0.00 99
20260502090148 1 350 0.0 0.0 0.00 0.00 0.00 99
20260502080110 2 335 0.0 0.0 0.00 0.00 0.00 99
20260502071044 2 358 0.0 0.0 0.00 0.00 0.00 99
20260502070542 2 358 0.0 0.0 0.00 0.00 0.00 99
20260502070039 2 350 0.0 0.0 0.00 0.00 0.00 99
20260502065538 2 2 0.0 0.0 0.00 0.00 0.00 98
20260502065035 3 2 0.0 0.0 0.00 0.00 0.00 98
20260502064533 3 356 0.0 0.0 0.00 0.00 0.00 98
20260502064030 3 347 0.0 0.0 0.00 0.00 0.00 98
20260502063528 3 338 0.0 0.0 0.00 0.00 0.00 98
20260502063025 3 1 0.0 0.0 0.00 0.00 0.00 98
20260502062522 3 1 0.0 0.0 0.00 0.00 0.00 97
20260502062020 3 4 0.0 0.0 0.00 0.00 0.00 97
20260502061517 3 7 0.0 0.0 0.00 0.00 0.00 97
20260502061015 3 6 0.0 0.0 0.00 0.00 0.00 97
20260502060510 3 7 0.0 0.0 0.00 0.00 0.00 97
20260502060007 3 351 0.0 0.0 0.00 0.00 0.00 96
20260502055504 3 350 0.0 0.0 0.00 0.00 0.00 96
20260502055003 3 357 0.0 0.0 0.00 0.00 0.00 95
20260502054502 4 357 0.0 0.0 0.00 0.00 0.00 95
20260502053958 4 357 0.0 0.0 0.00 0.00 0.00 95
20260502053455 5 357 0.0 0.0 0.00 0.00 0.00 94
20260502052953 5 0 0.0 0.0 0.00 0.00 0.00 94
20260502052451 5 355 0.0 0.0 0.00 0.00 0.00 92
20260502051949 5 357 0.0 0.0 0.00 0.00 0.00 92
20260502051447 5 350 0.0 0.0 0.00 0.00 0.00 91
20260502050944 5 355 0.0 0.0 0.00 0.00 0.00 91
20260502050440 5 357 0.0 0.0 0.00 0.00 0.00 90
20260502045937 6 344 0.0 0.0 0.00 0.00 0.00 89
20260502045434 6 345 0.0 0.0 0.00 0.00 0.00 89
20260502044931 6 344 0.0 0.0 0.00 0.00 0.00 88
20260502044427 6 348 0.0 0.0 0.00 0.00 0.00 87
20260502043924 6 338 0.0 0.0 0.00 0.00 0.00 87
20260502043422 6 356 0.0 0.0 0.00 0.00 0.00 87
20260502042921 7 345 0.0 0.0 0.00 0.00 0.00 86
20260502042419 7 338 0.0 0.0 0.00 0.00 0.00 84
20260502041915 7 355 0.0 0.0 0.00 0.00 0.00 84
20260502041414 7 356 0.0 0.0 0.00 0.00 0.00 83
20260502040910 7 355 0.0 0.0 0.00 0.00 0.00 81
20260502040407 7 349 0.0 0.0 0.00 0.00 0.00 82
20260502035903 7 349 0.0 0.0 0.00 0.00 0.00 81
20260502035400 7 348 0.0 0.0 0.00 0.00 0.00 80
20260502034857 8 348 0.0 0.0 0.00 0.00 0.00 81
20260502034356 8 346 0.0 0.0 0.00 0.00 0.00 78
20260502033854 8 355 0.0 0.0 0.00 0.00 0.00 78
20260502033351 8 348 0.0 0.0 0.00 0.00 0.00 78
20260502032847 8 340 0.0 0.0 0.00 0.00 0.00 75
20260502032343 8 336 0.0 0.0 0.00 0.00 0.00 74
20260502031841 8 346 0.0 0.0 0.00 0.00 0.00 73
20260502031339 8 168 1.6 3.2 0.00 0.00 0.00 73
20260502030837 8 349 0.0 0.0 0.00 0.00 0.00 73
20260502030335 9 349 0.0 1.6 0.00 0.00 0.00 74
20260502025832 9 342 0.0 1.6 0.00 0.00 0.00 71
20260502025330 9 300 0.0 0.0 0.00 0.00 0.00 72
20260502024828 9 61 0.0 1.6 0.00 0.00 0.00 70
20260502024325 9 311 0.0 1.6 0.00 0.00 0.00 70
20260502023823 10 356 0.0 0.0 0.00 0.00 0.00 71
20260502023321 10 5 0.0 1.6 0.00 0.00 0.00 69
20260502022818 10 47 0.0 1.6 0.00 0.00 0.00 70
20260502022314 10 26 0.0 8.0 0.00 0.00 0.00 69
20260502021811 10 349 0.0 1.6 0.00 0.00 0.00 70
20260502021308 10 109 1.6 11.3 0.00 0.00 0.00 69
20260502020806 10 343 0.0 3.2 0.00 0.00 0.00 70
20260502020303 10 306 1.6 3.2 0.00 0.00 0.00 70
20260502015800 10 356 0.0 3.2 0.00 0.00 0.00 70
20260502015256 10 349 1.6 3.2 0.00 0.00 0.00 71
20260502014755 10 342 0.0 1.6 0.00 0.00 0.00 71
20260502014251 10 336 0.0 4.8 0.00 0.00 0.00 71
20260502013747 10 312 1.6 8.0 0.00 0.00 0.00 70
20260502013243 10 22 1.6 1.6 0.00 0.00 0.00 73
20260502012740 11 150 3.2 8.0 0.00 0.00 0.00 71
20260502012238 11 300 4.8 9.7 0.00 0.00 0.00 73
20260502011735 11 327 0.0 4.8 0.00 0.00 0.00 75
20260502011230 11 111 3.2 3.2 0.00 0.00 0.00 77
20260502010728 11 342 0.0 1.6 0.00 0.00 0.00 77
20260502010224 11 2 0.0 1.6 0.00 0.00 0.00 77
20260502005722 11 293 1.6 3.2 0.00 0.00 0.00 81
20260502005219 11 322 0.0 0.0 0.00 0.00 0.00 79
20260502004716 11 326 0.0 0.0 0.00 0.00 0.00 80
20260502004212 10 310 1.6 8.0 0.00 0.00 0.00 79
20260502003710 10 353 0.0 0.0 0.00 0.00 0.00 84
20260502003207 10 336 1.6 3.2 0.00 0.00 0.00 84
20260502002703 10 2 0.0 0.0 0.00 0.00 0.00 83
20260502002201 11 356 0.0 0.0 0.00 0.00 0.00 84
20260502001658 11 358 0.0 0.0 0.00 0.00 0.00 80
20260502001155 11 357 0.0 0.0 0.00 0.00 0.00 81
20260502000653 11 342 0.0 0.0 0.00 0.00 0.00 81
20260502000151 11 350 0.0 0.0 0.00 0.00 0.00 81
20260501235646 11 350 0.0 0.0 0.00 0.00 0.00 80
20260501235142 11 353 0.0 1.6 0.00 0.00 0.00 80
20260501234638 11 342 0.0 0.0 0.00 0.00 0.00 80
20260501234136 11 14 0.0 0.0 0.00 0.00 0.00 76
20260501233633 11 344 0.0 1.6 0.00 0.00 0.00 78
20260501233131 11 345 0.0 1.6 0.00 0.00 0.00 77
20260501232627 11 228 3.2 3.2 0.00 0.00 0.00 75
20260501232124 11 348 0.0 0.0 0.00 0.00 0.00 79
20260501231622 11 4 0.0 0.0 0.00 0.00 0.00 78
20260501231120 11 341 0.0 3.2 0.00 0.00 0.00 76
20260501230618 11 350 0.0 0.0 0.00 0.00 0.00 80
20260501230116 11 319 1.6 3.2 0.00 0.00 0.00 76
20260501225613 11 9 0.0 1.6 0.00 0.00 0.00 74
20260501225109 12 344 0.0 1.6 0.00 0.00 0.00 76
20260501224607 12 351 0.0 3.2 0.00 0.00 0.00 71
20260501224103 12 277 1.6 3.2 0.00 0.00 0.00 68
20260501223600 12 359 0.0 1.6 0.00 0.00 0.00 68
20260501223056 13 351 1.6 9.7 0.00 0.00 0.00 66
20260501222552 13 216 1.6 3.2 0.00 0.00 0.00 63
20260501222049 13 93 3.2 8.0 0.00 0.00 0.00 63
20260501221546 13 347 1.6 4.8 0.00 0.00 0.00 66
20260501221044 13 289 3.2 4.8 0.00 0.00 0.00 67
20260501220541 13 321 3.2 3.2 0.00 0.00 0.00 66
20260501220038 13 304 1.6 4.8 0.00 0.00 0.00 65
20260501215534 14 345 0.0 4.8 0.00 0.00 0.00 66
20260501215030 14 323 3.2 9.7 0.00 0.00 0.00 65
20260501214525 15 216 3.2 11.3 0.00 0.00 0.00 65
20260501214021 14 343 3.2 9.7 0.00 0.00 0.00 67
20260501213518 14 357 0.0 3.2 0.00 0.00 0.00 69
20260501213015 14 93 4.8 8.0 0.00 0.00 0.00 68
20260501212511 15 339 3.2 4.8 0.00 0.00 0.00 69
20260501212008 15 338 0.0 3.2 0.00 0.00 0.00 67
20260501211504 15 51 6.4 9.7 0.00 0.00 0.00 66
20260501211003 15 327 0.0 3.2 0.00 0.00 0.00 66
20260501210458 15 282 3.2 8.0 0.00 0.00 0.00 65
20260501205955 15 286 4.8 8.0 0.00 0.00 0.00 65
20260501205452 15 228 1.6 4.8 0.00 0.00 0.00 62
20260501204950 15 295 4.8 11.3 0.00 0.00 0.00 62
20260501204445 15 301 1.6 4.8 0.00 0.00 0.00 59
20260501203942 15 202 3.2 4.8 0.00 0.00 0.00 59
20260501203438 15 339 0.0 9.7 0.00 0.00 0.00 58
20260501202936 16 10 0.0 3.2 0.00 0.00 0.00 58
20260501202433 16 327 0.0 4.8 0.00 0.00 0.00 58
20260501201929 16 3 4.8 8.0 0.00 0.00 0.00 55
20260501201426 16 349 3.2 9.7 0.00 0.00 0.00 54
20260501200923 16 331 1.6 3.2 0.00 0.00 0.00 56
20260501200420 17 17 3.2 4.8 0.00 0.00 0.00 51
20260501195918 16 332 1.6 4.8 0.00 0.00 0.00 52
20260501195414 17 347 1.6 4.8 0.00 0.00 0.00 49
20260501194910 17 327 1.6 11.3 0.00 0.00 0.00 48
20260501194406 17 81 3.2 4.8 0.00 0.00 0.00 50
20260501193902 17 339 0.0 3.2 0.00 0.00 0.00 50
20260501193401 17 350 0.0 3.2 0.00 0.00 0.00 45
20260501192858 17 354 1.6 4.8 0.00 0.00 0.00 46
20260501192355 18 334 4.8 4.8 0.00 0.00 0.00 47
20260501191852 18 45 1.6 4.8 0.00 0.00 0.00 45
20260501191349 18 8 1.6 3.2 0.00 0.00 0.00 43
20260501190846 18 267 6.4 8.0 0.00 0.00 0.00 43
20260501190342 18 228 1.6 1.6 0.00 0.00 0.00 44
20260501185837 20 319 4.8 8.0 0.00 0.00 0.00 41
20260501185333 20 350 8.0 14.5 0.00 0.00 0.00 39
20260501184829 20 340 3.2 3.2 0.00 0.00 0.00 47
20260501184325 20 149 1.6 9.7 0.00 0.00 0.00 43
20260501183821 20 359 0.0 3.2 0.00 0.00 0.00 41